Edwards AFB North Base, CA

3:48 AM PST on December 08, 2019 (GMT -0800)
Edwards AFB North Base

Weather History for K9L2 - May, 2019

Change the Weather History Date:

Wednesday, May 22, 2019

  Actual Average (KEDW) Record (KEDW)
Temperature  
Mean Temperature 54 °F -  
Max Temperature 63 °F 83 °F 104 °F (2000)
Min Temperature 46 °F 54 °F 46 °F (2002)
Degree Days  
Heating Degree Days 11    
Growing Degree Days 4 (Base 50)    
Moisture  
Dew Point 37 °F    
Average Humidity 55    
Maximum Humidity 87    
Minimum Humidity 37    
Precipitation  
Precipitation 0.03 in - - ()
Sea Level Pressure  
Sea Level Pressure 29.72 in    
Wind  
Wind Speed 8 mph ()    
Max Wind Speed 21 mph    
Max Gust Speed 24 mph    
Visibility 8.9 miles    
Events Rain    
Averages and records for this station are not official NWS values.
T = Trace of Precipitation, MM = Missing Value Source: Averaged Metar Reports

Daily Weather History Graph

Daily Weather History Graph

Search for Another Location

Airport or City:

Astronomy

May. 22, 2019 Rise Set
Actual Time 5:43 AM PDT 7:53 PM PDT
Civil Twilight 5:14 AM PDT 8:21 PM PDT
Nautical Twilight 4:39 AM PDT 8:56 PM PDT
Astronomical Twilight 4:02 AM PDT 9:34 PM PDT
Moon 11:39 PM PDT (5/22) 8:57 AM PDT (5/22)
Length of Visible Light 15h 07m
Length of Day
14h 10m
Waning Gibbous, 84% of the Moon is Illuminated
May 22
Waning Gibbous
May 26
Last Quarter
Jun 3
New
Jun 9
First Quarter
Jun 17
Full

Hourly Weather History & Observations

Time (PDT) Temp. Windchill Dew Point Humidity Pressure Visibility Wind Dir Wind Speed Gust Speed Precip Events Conditions
1:58 AM 50.9 °F - 32.5 °F 49% 29.65 in 10.0 mi West 8.1 mph - N/A   Clear
7:13 AM 46.4 °F 44.3 °F 33.8 °F 62% 29.71 in 10.0 mi ESE 4.6 mph - N/A   Mostly Cloudy
7:58 AM 50.5 °F - 34.2 °F 53% 29.71 in 9.0 mi SSE 4.6 mph - N/A   Overcast
8:43 AM 51.8 °F - 33.8 °F 50% 29.72 in 10.0 mi SSE 4.6 mph - N/A   Scattered Clouds
8:58 AM 51.8 °F - 33.8 °F 50% 29.72 in 10.0 mi SE 3.5 mph - N/A   Partly Cloudy
9:58 AM 54.1 °F - 33.6 °F 46% 29.70 in 10.0 mi Calm Calm - N/A   Partly Cloudy
10:43 AM 57.2 °F - 32.0 °F 38% 29.70 in 8.0 mi NW 9.2 mph - N/A   Mostly Cloudy
10:58 AM 56.3 °F - 35.6 °F 46% 29.71 in 9.0 mi NNE 18.4 mph - N/A   Mostly Cloudy
11:55 AM 51.8 °F - 41.0 °F 67% 29.75 in 7.0 mi North 16.1 mph - N/A Rain Light Rain
11:58 AM 51.1 °F - 40.8 °F 68% 29.75 in 7.0 mi North 15.0 mph - 0.00 in Rain Light Rain
12:13 PM 48.2 °F - 44.6 °F 87% 29.75 in 4.0 mi NW 12.7 mph - N/A Rain Light Rain
12:58 PM 48.2 °F - 44.6 °F 87% 29.75 in 7.0 mi WNW 9.2 mph - 0.03 in   Overcast
3:58 PM 60.8 °F - 36.0 °F 40% 29.67 in 10.0 mi West 13.8 mph 23.0 mph N/A   Partly Cloudy
4:58 PM 61.5 °F - 36.5 °F 39% 29.66 in 10.0 mi SW 10.4 mph 20.7 mph N/A   Scattered Clouds
5:58 PM 62.2 °F - 35.4 °F 37% 29.67 in 8.0 mi WSW 20.7 mph - N/A   Partly Cloudy
6:58 PM 56.8 °F - 37.8 °F 49% 29.70 in 8.0 mi West 19.6 mph 24.2 mph N/A   Scattered Clouds
7:58 PM 54.9 °F - 38.8 °F 55% 29.70 in 8.0 mi West 15.0 mph - N/A   Mostly Cloudy
8:43 PM 55.4 °F - 39.2 °F 54% 29.72 in 10.0 mi West 5.8 mph - N/A   Scattered Clouds
8:58 PM 54.3 °F - 39.0 °F 56% 29.73 in 9.0 mi West 3.5 mph - N/A   Scattered Clouds
9:13 PM 53.6 °F - 39.2 °F 58% 29.73 in 9.0 mi Calm Calm - N/A   Mostly Cloudy
9:58 PM 53.8 °F - 38.8 °F 57% 29.74 in 10.0 mi SSW 4.6 mph - N/A   Scattered Clouds
10:28 PM 53.6 °F - 39.2 °F 58% 29.74 in 10.0 mi South 8.1 mph - N/A   Mostly Cloudy
10:58 PM 52.9 °F - 39.4 °F 60% 29.74 in 10.0 mi South 6.9 mph - N/A   Scattered Clouds
11:58 PM 53.1 °F - 38.7 °F 58% 29.75 in 10.0 mi SSW 6.9 mph - N/A   Mostly Cloudy